INMARSAT 3-F2

Last updated on Wed Jul 02 2025 00:02:43 GMT+0000 (Coordinated Universal Time)

1 24307U 96053A 25182.54697288 -.00000288 00000+0 00000+0 0 9993 2 24307 9.0589 57.4173 0007003 45.4330 159.2768 1.00002541105417
UTC large
Height (km)
Speed (km/s)
/
Latitude / Longitude
Inclination (degrees)
Orbital Period (minutes)
Azimuth
Elevation
Range (km)
Doppler Factor

Next 0 passes for location: London (51.5072 / 0.1276)

Sorry there are no passes over London.